This is the latest recevied weather packets stored in our database for station/object WX6HNX-2. If no packets are shown the sender has not sent any weather packets the latest 10 day(s).
| Time | Temp. | Humidity | Pressure | Rain* | Wind** | Luminosity | Snow |
|---|---|---|---|---|---|---|---|
| 1777762469 | 25.56° C | 42% | 1010.9 hPa | 0 mm | - | - | - |
| 1777761989 | 25.56° C | 39% | 1011 hPa | 0 mm | - | - | - |
| 1777761749 | 25.56° C | 41% | 1011.1 hPa | 0 mm | - | - | - |
| 1777761509 | 25.56° C | 40% | 1011.1 hPa | 0 mm | - | - | - |
| 1777761130 | 25.56° C | 40% | 1011.2 hPa | 0 mm | - | - | - |
| 1777760890 | 26.11° C | 40% | 1011.3 hPa | 0 mm | - | - | - |
| 1777760650 | 26.11° C | 40% | 1011.3 hPa | 0 mm | - | - | - |
| 1777760410 | 25.56° C | 42% | 1011.4 hPa | 0 mm | - | - | - |
| 1777760170 | 25.56° C | 41% | 1011.5 hPa | 0 mm | - | - | - |
| 1777759930 | 26.11° C | 40% | 1011.5 hPa | 0 mm | - | - | - |
| 1777759690 | 26.11° C | 40% | 1011.6 hPa | 0 mm | - | - | - |
| 1777759450 | 26.11° C | 42% | 1011.6 hPa | 0 mm | - | - | - |
| 1777759210 | 26.11° C | 39% | 1011.7 hPa | 0 mm | - | - | - |
| 1777758970 | 26.11° C | 40% | 1011.8 hPa | 0 mm | - | - | - |
| 1777758730 | 26.11° C | 38% | 1011.8 hPa | 0 mm | - | - | - |
| 1777758490 | 26.67° C | 40% | 1011.9 hPa | 0 mm | - | - | - |
| 1777758250 | 26.11° C | 40% | 1011.9 hPa | 0 mm | - | - | - |
| 1777758010 | 26.11° C | 39% | 1011.9 hPa | 0 mm | - | - | - |
| 1777757770 | 26.67° C | 40% | 1012 hPa | 0 mm | - | - | - |
| 1777757050 | 26.67° C | 40% | 1012.2 hPa | 0 mm | - | - | - |
| 1777756810 | 26.67° C | 39% | 1012.1 hPa | 0 mm | - | - | - |
| 1777756570 | 26.67° C | 41% | 1012.3 hPa | 0 mm | - | - | - |
| 1777756330 | 26.67° C | 41% | 1012.3 hPa | 0 mm | - | - | - |
| 1777755941 | 26.67° C | 42% | 1012.4 hPa | 0 mm | - | - | - |
| 1777755701 | 26.11° C | 41% | 1012.4 hPa | 0 mm | - | - | - |
* Rain latest hour (hover to see other rain measurements)
** Current wind speed in m/s (hover to see current wind gust speed)